| time (UTC) | temp C | wind direction | speed KPH | gust KPH | rain 1hr cm | rain 24hr cm | rain mn cm | humidity % | barometer mb |
| 20260831183057 | 31 | 124 | 1.6 | 8.0 | 0.00 | 0.00 | 0.00 | 58 | 1018.5 |
| 20260831182557 | 31 | 131 | 0.0 | 8.0 | 0.00 | 0.00 | 0.00 | 59 | 1018.5 |
| 20260831182102 | 32 | 82 | 3.2 | 6.4 | 0.00 | 0.00 | 0.00 | 56 | 1018.5 |
| 20260831181557 | 32 | 127 | 3.2 | 8.0 | 0.00 | 0.00 | 0.00 | 57 | 1018.6 |
| 20260831181057 | 32 | 94 | 3.2 | 8.0 | 0.00 | 0.00 | 0.00 | 57 | 1018.7 |
| 20260831180555 | 31 | 90 | 1.6 | 8.0 | 0.00 | 0.00 | 0.00 | 59 | 1018.7 |
| 20260831180055 | 32 | 145 | 3.2 | 8.0 | 0.00 | 0.00 | 0.00 | 59 | 1018.8 |
| 20260831175555 | 31 | 56 | 1.6 | 8.0 | 0.00 | 0.00 | 0.00 | 60 | 1018.9 |
| 20260831175053 | 32 | 86 | 1.6 | 4.8 | 0.00 | 0.00 | 0.00 | 60 | 1018.9 |
| 20260831174553 | 31 | 89 | 0.0 | 6.4 | 0.00 | 0.00 | 0.00 | 60 | 1019.0 |
| 20260831174054 | 31 | 3 | 0.0 | 4.8 | 0.00 | 0.00 | 0.00 | 59 | 1019.0 |
| 20260831173552 | 31 | 328 | 3.2 | 6.4 | 0.00 | 0.00 | 0.00 | 61 | 1019.0 |
| 20260831173051 | 31 | 127 | 1.6 | 6.4 | 0.00 | 0.00 | 0.00 | 62 | 1019.1 |
| 20260831172550 | 31 | 151 | 0.0 | 3.2 | 0.00 | 0.00 | 0.00 | 63 | 1019.2 |
| 20260831172050 | 31 | 144 | 0.0 | 4.8 | 0.00 | 0.00 | 0.00 | 63 | 1019.3 |
| 20260831171549 | 31 | 93 | 0.0 | 4.8 | 0.00 | 0.00 | 0.00 | 64 | 1019.3 |
| 20260831171048 | 31 | 85 | 1.6 | 4.8 | 0.00 | 0.00 | 0.00 | 65 | 1019.4 |
| 20260831170548 | 30 | 307 | 0.0 | 4.8 | 0.00 | 0.00 | 0.00 | 64 | 1019.3 |
| 20260831170047 | 30 | 267 | 1.6 | 3.2 | 0.00 | 0.00 | 0.00 | 66 | 1019.3 |
| 20260831165545 | 30 | 210 | 1.6 | 3.2 | 0.00 | 0.00 | 0.00 | 68 | 1019.4 |
| 20260831165044 | 29 | 209 | 0.0 | 3.2 | 0.00 | 0.00 | 0.00 | 70 | 1019.4 |
| 20260831164544 | 29 | 32 | 1.6 | 4.8 | 0.00 | 0.00 | 0.00 | 68 | 1019.4 |
| 20260831164044 | 30 | 32 | 1.6 | 4.8 | 0.00 | 0.00 | 0.00 | 69 | 1019.5 |
| 20260831163544 | 29 | 53 | 1.6 | 3.2 | 0.00 | 0.00 | 0.00 | 70 | 1019.4 |
| 20260831163044 | 28 | 55 | 0.0 | 3.2 | 0.00 | 0.00 | 0.00 | 70 | 1019.5 |
| 20260831162548 | 29 | 56 | 1.6 | 4.8 | 0.00 | 0.00 | 0.00 | 69 | 1019.6 |
| 20260831162046 | 30 | 262 | 1.6 | 4.8 | 0.00 | 0.00 | 0.00 | 68 | 1019.6 |
| 20260831161543 | 29 | 293 | 3.2 | 4.8 | 0.00 | 0.00 | 0.00 | 69 | 1019.7 |
| 20260831161045 | 29 | 232 | 1.6 | 4.8 | 0.00 | 0.00 | 0.00 | 71 | 1019.8 |
| 20260831160545 | 28 | 242 | 1.6 | 4.8 | 0.00 | 0.00 | 0.00 | 73 | 1019.8 |
| 20260831160044 | 28 | 278 | 1.6 | 4.8 | 0.00 | 0.00 | 0.00 | 72 | 1019.9 |
| 20260831155542 | 28 | 165 | 0.0 | 4.8 | 0.00 | 0.00 | 0.00 | 70 | 1019.9 |
| 20260831155041 | 29 | 164 | 1.6 | 4.8 | 0.00 | 0.00 | 0.00 | 72 | 1019.9 |
| 20260831154606 | 30 | 164 | 1.6 | 6.4 | 0.00 | 0.00 | 0.00 | 69 | 1019.9 |
| 20260831154040 | 30 | 128 | 0.0 | 6.4 | 0.00 | 0.00 | 0.00 | 71 | 1019.9 |
| 20260831153538 | 29 | 138 | 3.2 | 6.4 | 0.00 | 0.00 | 0.00 | 71 | 1019.9 |
| 20260831153038 | 29 | 115 | 1.6 | 6.4 | 0.00 | 0.00 | 0.00 | 73 | 1020.0 |
| 20260831152538 | 29 | 77 | 1.6 | 4.8 | 0.00 | 0.00 | 0.00 | 72 | 1020.0 |
| 20260831152036 | 28 | 133 | 0.0 | 4.8 | 0.00 | 0.00 | 0.00 | 75 | 1020.0 |
| 20260831151546 | 28 | 23 | 0.0 | 3.2 | 0.00 | 0.00 | 0.00 | 76 | 1020.0 |
| 20260831151035 | 28 | 119 | 0.0 | 3.2 | 0.00 | 0.00 | 0.00 | 76 | 1020.0 |
| 20260831150533 | 28 | 129 | 0.0 | 3.2 | 0.00 | 0.00 | 0.00 | 77 | 1019.9 |
| 20260831150031 | 27 | 127 | 0.0 | 4.8 | 0.00 | 0.00 | 0.00 | 77 | 1019.8 |
| 20260831145531 | 27 | 127 | 1.6 | 4.8 | 0.00 | 0.00 | 0.00 | 80 | 1019.8 |
| 20260831145032 | 26 | 150 | 0.0 | 1.6 | 0.00 | 0.00 | 0.00 | 82 | 1019.8 |
| 20260831144530 | 26 | 150 | 0.0 | 3.2 | 0.00 | 0.00 | 0.00 | 81 | 1019.8 |
| 20260831144028 | 26 | 150 | 0.0 | 3.2 | 0.00 | 0.00 | 0.00 | 82 | 1019.7 |
| 20260831143528 | 26 | 154 | 0.0 | 4.8 | 0.00 | 0.00 | 0.00 | 81 | 1019.7 |
| 20260831143030 | 26 | 154 | 0.0 | 4.8 | 0.00 | 0.00 | 0.00 | 82 | 1019.7 |
| 20260831142528 | 26 | 101 | 0.0 | 3.2 | 0.00 | 0.00 | 0.00 | 82 | 1019.7 |
| 20260831142028 | 26 | 101 | 0.0 | 3.2 | 0.00 | 0.00 | 0.00 | 83 | 1019.8 |
| 20260831141526 | 26 | 101 | 0.0 | 4.8 | 0.00 | 0.00 | 0.00 | 82 | 1019.7 |
| 20260831141026 | 26 | 166 | 1.6 | 4.8 | 0.00 | 0.00 | 0.00 | 83 | 1019.8 |
| 20260831140524 | 26 | 168 | 0.0 | 4.8 | 0.00 | 0.00 | 0.00 | 85 | 1019.8 |
| 20260831140023 | 26 | 168 | 1.6 | 4.8 | 0.00 | 0.00 | 0.00 | 84 | 1019.8 |
| 20260831135521 | 25 | 159 | 0.0 | 4.8 | 0.00 | 0.00 | 0.00 | 85 | 1019.8 |
| 20260831135020 | 25 | 160 | 1.6 | 4.8 | 0.00 | 0.00 | 0.00 | 86 | 1019.8 |
| 20260831134522 | 25 | 146 | 0.0 | 4.8 | 0.00 | 0.00 | 0.00 | 86 | 1019.7 |
| 20260831134018 | 25 | 160 | 0.0 | 4.8 | 0.00 | 0.00 | 0.00 | 87 | 1019.8 |
| 20260831133518 | 25 | 140 | 0.0 | 4.8 | 0.00 | 0.00 | 0.00 | 88 | 1019.9 |
| 20260831133016 | 25 | 136 | 0.0 | 0.0 | 0.00 | 0.00 | 0.00 | 89 | 1020.0 |
| 20260831132519 | 24 | 184 | 0.0 | 0.0 | 0.00 | 0.00 | 0.00 | 90 | 1020.0 |
| 20260831132014 | 24 | 184 | 0.0 | 0.0 | 0.00 | 0.00 | 0.00 | 90 | 1019.9 |
| 20260831131514 | 24 | 184 | 0.0 | 0.0 | 0.00 | 0.00 | 0.00 | 90 | 1020.0 |
| 20260831131014 | 23 | 184 | 0.0 | 0.0 | 0.00 | 0.00 | 0.00 | 91 | 1020.0 |
| 20260831130513 | 23 | 184 | 0.0 | 0.0 | 0.00 | 0.00 | 0.00 | 92 | 1020.0 |
| 20260831130013 | 23 | 184 | 0.0 | 0.0 | 0.00 | 0.00 | 0.00 | 92 | 1020.0 |
| 20260831125515 | 23 | 184 | 0.0 | 0.0 | 0.00 | 0.00 | 0.00 | 93 | 1019.9 |
| 20260831125012 | 23 | 184 | 0.0 | 0.0 | 0.00 | 0.00 | 0.00 | 94 | 1019.9 |
| 20260831124524 | 23 | 184 | 0.0 | 0.0 | 0.00 | 0.00 | 0.00 | 94 | 1020.0 |
| 20260831124010 | 22 | 184 | 0.0 | 0.0 | 0.00 | 0.00 | 0.00 | 95 | 1019.9 |
| 20260831123509 | 22 | 184 | 0.0 | 0.0 | 0.00 | 0.00 | 0.00 | 95 | 1019.9 |
| 20260831123009 | 22 | 184 | 0.0 | 0.0 | 0.00 | 0.00 | 0.00 | 95 | 1019.9 |
| 20260831122508 | 22 | 184 | 0.0 | 0.0 | 0.00 | 0.00 | 0.00 | 95 | 1019.9 |
| 20260831122008 | 22 | 184 | 0.0 | 0.0 | 0.00 | 0.00 | 0.00 | 95 | 1019.8 |
| 20260831121506 | 22 | 184 | 0.0 | 0.0 | 0.00 | 0.00 | 0.00 | 95 | 1019.8 |
| 20260831121006 | 22 | 184 | 0.0 | 0.0 | 0.00 | 0.00 | 0.00 | 95 | 1019.6 |
| 20260831120507 | 22 | 184 | 0.0 | 0.0 | 0.00 | 0.00 | 0.00 | 95 | 1019.6 |
| 20260831120004 | 22 | 184 | 0.0 | 0.0 | 0.00 | 0.00 | 0.00 | 95 | 1019.5 |
| 20260831115503 | 21 | 184 | 0.0 | 0.0 | 0.00 | 0.00 | 0.00 | 95 | 1019.5 |
| 20260831115003 | 21 | 184 | 0.0 | 0.0 | 0.00 | 0.00 | 0.00 | 95 | 1019.5 |
| 20260831114503 | 21 | 184 | 0.0 | 0.0 | 0.00 | 0.00 | 0.00 | 95 | 1019.4 |
| 20260831114003 | 21 | 184 | 0.0 | 0.0 | 0.00 | 0.00 | 0.00 | 95 | 1019.4 |
| 20260831113502 | 21 | 184 | 0.0 | 0.0 | 0.00 | 0.00 | 0.00 | 95 | 1019.4 |
| 20260831113001 | 21 | 184 | 0.0 | 0.0 | 0.00 | 0.00 | 0.00 | 95 | 1019.3 |
| 20260831112600 | 21 | 184 | 0.0 | 0.0 | 0.00 | 0.00 | 0.00 | 95 | 1019.3 |
| 20260831112059 | 21 | 184 | 0.0 | 0.0 | 0.00 | 0.00 | 0.00 | 95 | 1019.2 |
| 20260831111600 | 21 | 184 | 0.0 | 0.0 | 0.00 | 0.00 | 0.00 | 95 | 1019.1 |
| 20260831111058 | 21 | 184 | 0.0 | 0.0 | 0.00 | 0.00 | 0.00 | 95 | 1019.1 |
| 20260831110600 | 21 | 184 | 0.0 | 0.0 | 0.00 | 0.00 | 0.00 | 95 | 1019.0 |
| 20260831110105 | 21 | 184 | 0.0 | 0.0 | 0.00 | 0.00 | 0.00 | 95 | 1019.0 |
| 20260831105558 | 21 | 184 | 0.0 | 0.0 | 0.00 | 0.00 | 0.00 | 95 | 1019.0 |
| 20260831105057 | 22 | 184 | 0.0 | 0.0 | 0.00 | 0.00 | 0.00 | 95 | 1018.9 |
| 20260831104557 | 22 | 184 | 0.0 | 0.0 | 0.00 | 0.00 | 0.00 | 95 | 1019.0 |
| 20260831104057 | 22 | 184 | 0.0 | 0.0 | 0.00 | 0.00 | 0.00 | 95 | 1018.9 |
| 20260831103559 | 22 | 184 | 0.0 | 0.0 | 0.00 | 0.00 | 0.00 | 95 | 1018.9 |
| 20260831103056 | 22 | 184 | 0.0 | 0.0 | 0.00 | 0.00 | 0.00 | 95 | 1018.9 |
| 20260831102558 | 22 | 184 | 0.0 | 0.0 | 0.00 | 0.00 | 0.00 | 95 | 1018.9 |
| 20260831102056 | 22 | 184 | 0.0 | 0.0 | 0.00 | 0.00 | 0.00 | 95 | 1018.9 |
| 20260831101601 | 22 | 184 | 0.0 | 0.0 | 0.00 | 0.00 | 0.00 | 94 | 1018.8 |
| 20260831101055 | 22 | 184 | 0.0 | 0.0 | 0.00 | 0.00 | 0.00 | 94 | 1018.8 |
| 20260831100553 | 22 | 184 | 0.0 | 0.0 | 0.00 | 0.00 | 0.00 | 95 | 1018.6 |
| 20260831100106 | 22 | 184 | 0.0 | 0.0 | 0.00 | 0.00 | 0.00 | 95 | 1018.6 |
| 20260831095554 | 22 | 184 | 0.0 | 0.0 | 0.00 | 0.00 | 0.00 | 94 | 1018.5 |
| 20260831095053 | 22 | 184 | 0.0 | 0.0 | 0.00 | 0.00 | 0.00 | 94 | 1018.5 |
| 20260831094614 | 22 | 184 | 0.0 | 0.0 | 0.00 | 0.00 | 0.00 | 94 | 1018.6 |
| 20260831094053 | 22 | 184 | 0.0 | 0.0 | 0.00 | 0.00 | 0.00 | 94 | 1018.6 |
| 20260831093551 | 22 | 184 | 0.0 | 0.0 | 0.00 | 0.00 | 0.00 | 94 | 1018.6 |
| 20260831093055 | 22 | 184 | 0.0 | 0.0 | 0.00 | 0.00 | 0.00 | 94 | 1018.5 |
| 20260831092551 | 22 | 184 | 0.0 | 0.0 | 0.00 | 0.00 | 0.00 | 94 | 1018.5 |
| 20260831092051 | 22 | 184 | 0.0 | 0.0 | 0.00 | 0.00 | 0.00 | 94 | 1018.5 |
| 20260831091611 | 22 | 184 | 0.0 | 0.0 | 0.00 | 0.00 | 0.00 | 94 | 1018.5 |
| 20260831091052 | 22 | 184 | 0.0 | 0.0 | 0.00 | 0.00 | 0.00 | 94 | 1018.6 |
| 20260831090551 | 22 | 184 | 0.0 | 0.0 | 0.00 | 0.00 | 0.00 | 94 | 1018.4 |
| 20260831090051 | 22 | 184 | 0.0 | 0.0 | 0.00 | 0.00 | 0.00 | 94 | 1018.5 |
| 20260831085550 | 22 | 184 | 0.0 | 0.0 | 0.00 | 0.00 | 0.00 | 94 | 1018.4 |
| 20260831085050 | 22 | 184 | 0.0 | 0.0 | 0.00 | 0.00 | 0.00 | 94 | 1018.4 |
| 20260831084551 | 22 | 184 | 0.0 | 0.0 | 0.00 | 0.00 | 0.00 | 94 | 1018.4 |
| 20260831084048 | 22 | 184 | 0.0 | 0.0 | 0.00 | 0.00 | 0.00 | 94 | 1018.4 |
| 20260831083548 | 22 | 184 | 0.0 | 0.0 | 0.00 | 0.00 | 0.00 | 94 | 1018.3 |
| 20260831083047 | 22 | 184 | 0.0 | 0.0 | 0.00 | 0.00 | 0.00 | 93 | 1018.3 |
| 20260831082547 | 22 | 184 | 0.0 | 0.0 | 0.00 | 0.00 | 0.00 | 93 | 1018.2 |
| 20260831082047 | 22 | 184 | 0.0 | 0.0 | 0.00 | 0.00 | 0.00 | 94 | 1018.2 |
| 20260831081547 | 22 | 184 | 0.0 | 0.0 | 0.00 | 0.00 | 0.00 | 93 | 1018.2 |
| 20260831081047 | 22 | 184 | 0.0 | 0.0 | 0.00 | 0.00 | 0.00 | 94 | 1018.2 |
| 20260831080546 | 22 | 184 | 0.0 | 0.0 | 0.00 | 0.00 | 0.00 | 94 | 1018.1 |
| 20260831080047 | 22 | 184 | 0.0 | 0.0 | 0.00 | 0.00 | 0.00 | 93 | 1018.1 |
| 20260831075547 | 22 | 184 | 0.0 | 0.0 | 0.00 | 0.00 | 0.00 | 93 | 1018.0 |
| 20260831075049 | 22 | 184 | 0.0 | 0.0 | 0.00 | 0.00 | 0.00 | 93 | 1017.9 |
| 20260831074545 | 22 | 184 | 0.0 | 0.0 | 0.00 | 0.00 | 0.00 | 93 | 1017.9 |
| 20260831074045 | 22 | 184 | 0.0 | 0.0 | 0.00 | 0.00 | 0.00 | 93 | 1017.9 |
| 20260831073545 | 22 | 184 | 0.0 | 0.0 | 0.00 | 0.00 | 0.00 | 93 | 1017.8 |
| 20260831073046 | 22 | 184 | 0.0 | 0.0 | 0.00 | 0.00 | 0.00 | 93 | 1017.9 |
| 20260831072546 | 22 | 184 | 0.0 | 0.0 | 0.00 | 0.00 | 0.00 | 93 | 1017.8 |
| 20260831072043 | 22 | 184 | 0.0 | 0.0 | 0.00 | 0.00 | 0.00 | 93 | 1017.8 |
| 20260831071604 | 22 | 184 | 0.0 | 0.0 | 0.00 | 0.00 | 0.00 | 92 | 1017.9 |
| 20260831071047 | 22 | 184 | 0.0 | 0.0 | 0.00 | 0.00 | 0.00 | 92 | 1017.9 |
| 20260831070543 | 22 | 184 | 0.0 | 0.0 | 0.00 | 0.00 | 0.00 | 92 | 1017.8 |
| 20260831070042 | 22 | 184 | 0.0 | 0.0 | 0.00 | 0.00 | 0.00 | 92 | 1017.8 |
| 20260831065541 | 22 | 184 | 0.0 | 0.0 | 0.00 | 0.00 | 0.00 | 92 | 1017.9 |
| 20260831065042 | 22 | 184 | 0.0 | 0.0 | 0.00 | 0.00 | 0.00 | 92 | 1017.9 |
| 20260831064541 | 22 | 184 | 0.0 | 0.0 | 0.00 | 0.00 | 0.00 | 92 | 1018.0 |
| 20260831064040 | 22 | 184 | 0.0 | 0.0 | 0.00 | 0.00 | 0.00 | 92 | 1018.0 |
| 20260831063541 | 22 | 184 | 0.0 | 0.0 | 0.00 | 0.00 | 0.00 | 92 | 1018.0 |
| 20260831063041 | 22 | 184 | 0.0 | 0.0 | 0.00 | 0.00 | 0.00 | 92 | 1018.1 |
| 20260831062540 | 22 | 184 | 0.0 | 0.0 | 0.00 | 0.00 | 0.00 | 91 | 1018.1 |
| 20260831062039 | 22 | 184 | 0.0 | 0.0 | 0.00 | 0.00 | 0.00 | 91 | 1018.1 |
| 20260831061539 | 22 | 184 | 0.0 | 0.0 | 0.00 | 0.00 | 0.00 | 91 | 1018.1 |
| 20260831061037 | 23 | 184 | 0.0 | 0.0 | 0.00 | 0.00 | 0.00 | 91 | 1018.2 |
| 20260831060537 | 23 | 184 | 0.0 | 0.0 | 0.00 | 0.00 | 0.00 | 91 | 1018.2 |
| 20260831060044 | 23 | 184 | 0.0 | 0.0 | 0.00 | 0.00 | 0.00 | 91 | 1018.2 |
| 20260831055537 | 23 | 184 | 0.0 | 0.0 | 0.00 | 0.00 | 0.00 | 91 | 1018.2 |
| 20260831055036 | 23 | 184 | 0.0 | 0.0 | 0.00 | 0.00 | 0.00 | 90 | 1018.2 |
| 20260831054536 | 23 | 184 | 0.0 | 0.0 | 0.00 | 0.00 | 0.00 | 90 | 1018.2 |
| 20260831054036 | 23 | 184 | 0.0 | 0.0 | 0.00 | 0.00 | 0.00 | 90 | 1018.1 |
| 20260831053536 | 23 | 184 | 0.0 | 0.0 | 0.00 | 0.00 | 0.00 | 90 | 1018.0 |
| 20260831053046 | 23 | 184 | 0.0 | 0.0 | 0.00 | 0.00 | 0.00 | 90 | 1017.9 |
| 20260831052535 | 23 | 184 | 0.0 | 0.0 | 0.00 | 0.00 | 0.00 | 90 | 1017.9 |
| 20260831052034 | 23 | 184 | 0.0 | 0.0 | 0.00 | 0.00 | 0.00 | 90 | 1017.9 |
| 20260831051537 | 23 | 184 | 0.0 | 0.0 | 0.00 | 0.00 | 0.00 | 90 | 1017.9 |
| 20260831051033 | 23 | 184 | 0.0 | 0.0 | 0.00 | 0.00 | 0.00 | 90 | 1018.0 |
| 20260831050533 | 23 | 184 | 0.0 | 0.0 | 0.00 | 0.00 | 0.00 | 90 | 1018.1 |
| 20260831050032 | 23 | 184 | 0.0 | 0.0 | 0.00 | 0.00 | 0.00 | 89 | 1018.1 |
| 20260831045531 | 23 | 184 | 0.0 | 0.0 | 0.00 | 0.00 | 0.00 | 89 | 1018.1 |
| 20260831045030 | 23 | 184 | 0.0 | 0.0 | 0.00 | 0.00 | 0.00 | 89 | 1018.0 |
| 20260831044530 | 23 | 184 | 0.0 | 0.0 | 0.00 | 0.00 | 0.00 | 89 | 1018.1 |
| 20260831044031 | 23 | 184 | 0.0 | 0.0 | 0.00 | 0.00 | 0.00 | 88 | 1017.9 |
| 20260831043530 | 23 | 184 | 0.0 | 0.0 | 0.00 | 0.00 | 0.00 | 88 | 1018.0 |
| 20260831043029 | 23 | 184 | 0.0 | 0.0 | 0.00 | 0.00 | 0.00 | 88 | 1017.9 |
| 20260831042528 | 23 | 184 | 0.0 | 0.0 | 0.00 | 0.00 | 0.00 | 88 | 1018.1 |
| 20260831042028 | 23 | 184 | 0.0 | 0.0 | 0.00 | 0.00 | 0.00 | 88 | 1018.0 |
| 20260831041528 | 23 | 184 | 0.0 | 0.0 | 0.00 | 0.00 | 0.00 | 88 | 1018.0 |
| 20260831041030 | 24 | 184 | 0.0 | 0.0 | 0.00 | 0.00 | 0.00 | 88 | 1018.1 |
| 20260831040528 | 24 | 184 | 0.0 | 0.0 | 0.00 | 0.00 | 0.00 | 87 | 1018.2 |
| 20260831040027 | 24 | 184 | 0.0 | 0.0 | 0.00 | 0.00 | 0.00 | 87 | 1018.1 |
| 20260831035525 | 24 | 184 | 0.0 | 0.0 | 0.00 | 0.00 | 0.00 | 87 | 1018.2 |
| 20260831035025 | 24 | 184 | 0.0 | 0.0 | 0.00 | 0.00 | 0.00 | 87 | 1018.2 |
| 20260831034525 | 24 | 184 | 0.0 | 0.0 | 0.00 | 0.00 | 0.00 | 87 | 1018.2 |
| 20260831034025 | 24 | 184 | 0.0 | 0.0 | 0.00 | 0.00 | 0.00 | 86 | 1018.3 |
| 20260831033525 | 24 | 184 | 0.0 | 0.0 | 0.00 | 0.00 | 0.00 | 86 | 1018.4 |
| 20260831033032 | 24 | 184 | 0.0 | 0.0 | 0.00 | 0.00 | 0.00 | 86 | 1018.3 |
| 20260831032525 | 24 | 184 | 0.0 | 0.0 | 0.00 | 0.00 | 0.00 | 85 | 1018.4 |
| 20260831032028 | 25 | 184 | 0.0 | 0.0 | 0.00 | 0.00 | 0.00 | 85 | 1018.5 |
| 20260831031527 | 25 | 184 | 0.0 | 0.0 | 0.00 | 0.00 | 0.00 | 85 | 1018.5 |
| 20260831031027 | 25 | 184 | 0.0 | 0.0 | 0.00 | 0.00 | 0.00 | 84 | 1018.5 |
| 20260831030524 | 25 | 184 | 0.0 | 0.0 | 0.00 | 0.00 | 0.00 | 84 | 1018.4 |
| 20260831030024 | 25 | 184 | 0.0 | 0.0 | 0.00 | 0.00 | 0.00 | 84 | 1018.5 |
| 20260831025523 | 25 | 184 | 0.0 | 0.0 | 0.00 | 0.00 | 0.00 | 84 | 1018.5 |
| 20260831025023 | 25 | 184 | 0.0 | 0.0 | 0.00 | 0.00 | 0.00 | 84 | 1018.5 |
| 20260831024524 | 25 | 184 | 0.0 | 0.0 | 0.00 | 0.00 | 0.00 | 83 | 1018.5 |
| 20260831024025 | 25 | 184 | 0.0 | 0.0 | 0.00 | 0.00 | 0.00 | 83 | 1018.4 |
| 20260831023522 | 25 | 184 | 0.0 | 0.0 | 0.00 | 0.00 | 0.00 | 84 | 1018.4 |
| 20260831023034 | 25 | 184 | 0.0 | 0.0 | 0.00 | 0.00 | 0.00 | 83 | 1018.4 |
| 20260831022522 | 25 | 184 | 0.0 | 0.0 | 0.00 | 0.00 | 0.00 | 82 | 1018.4 |
| 20260831022022 | 25 | 184 | 0.0 | 0.0 | 0.00 | 0.00 | 0.00 | 82 | 1018.3 |
| 20260831021534 | 25 | 184 | 0.0 | 0.0 | 0.00 | 0.00 | 0.00 | 82 | 1018.3 |
| 20260831021029 | 25 | 184 | 0.0 | 0.0 | 0.00 | 0.00 | 0.00 | 83 | 1018.3 |
| 20260831020525 | 25 | 184 | 0.0 | 0.0 | 0.00 | 0.00 | 0.00 | 82 | 1018.2 |
| 20260831020044 | 25 | 184 | 0.0 | 0.0 | 0.00 | 0.00 | 0.00 | 84 | 1018.2 |
| 20260831015526 | 25 | 184 | 0.0 | 0.0 | 0.00 | 0.00 | 0.00 | 83 | 1018.2 |
| 20260831015021 | 25 | 184 | 0.0 | 0.0 | 0.00 | 0.00 | 0.00 | 82 | 1018.2 |
| 20260831014521 | 25 | 184 | 0.0 | 0.0 | 0.00 | 0.00 | 0.00 | 82 | 1018.2 |
| 20260831014021 | 25 | 184 | 0.0 | 0.0 | 0.00 | 0.00 | 0.00 | 82 | 1018.1 |
| 20260831013521 | 25 | 184 | 0.0 | 0.0 | 0.00 | 0.00 | 0.00 | 82 | 1018.1 |
| 20260831013021 | 25 | 184 | 0.0 | 0.0 | 0.00 | 0.00 | 0.00 | 81 | 1018.0 |
| 20260831012521 | 26 | 184 | 0.0 | 0.0 | 0.00 | 0.00 | 0.00 | 82 | 1017.9 |
| 20260831012021 | 26 | 184 | 0.0 | 0.0 | 0.00 | 0.00 | 0.00 | 82 | 1017.9 |
| 20260831011525 | 26 | 184 | 0.0 | 0.0 | 0.00 | 0.00 | 0.00 | 82 | 1017.8 |
| 20260831011020 | 26 | 184 | 0.0 | 0.0 | 0.00 | 0.00 | 0.00 | 81 | 1017.8 |
| 20260831010520 | 26 | 184 | 0.0 | 0.0 | 0.00 | 0.00 | 0.00 | 81 | 1017.7 |
| 20260831010020 | 26 | 184 | 0.0 | 0.0 | 0.00 | 0.00 | 0.00 | 80 | 1017.7 |
| 20260831005521 | 26 | 184 | 0.0 | 0.0 | 0.00 | 0.00 | 0.00 | 80 | 1017.7 |
| 20260831005020 | 26 | 184 | 0.0 | 0.0 | 0.00 | 0.00 | 0.00 | 80 | 1017.6 |
| 20260831004520 | 26 | 184 | 0.0 | 0.0 | 0.00 | 0.00 | 0.00 | 80 | 1017.6 |
| 20260831004021 | 26 | 184 | 0.0 | 0.0 | 0.00 | 0.00 | 0.00 | 80 | 1017.6 |
| 20260831003520 | 26 | 184 | 0.0 | 0.0 | 0.00 | 0.00 | 0.00 | 80 | 1017.6 |
| 20260831003019 | 26 | 184 | 0.0 | 0.0 | 0.00 | 0.00 | 0.00 | 80 | 1017.5 |
| 20260831002519 | 26 | 184 | 0.0 | 0.0 | 0.00 | 0.00 | 0.00 | 79 | 1017.5 |
| 20260831002022 | 27 | 184 | 0.0 | 0.0 | 0.00 | 0.00 | 0.00 | 78 | 1017.4 |
| 20260831001526 | 27 | 184 | 0.0 | 0.0 | 0.00 | 0.00 | 0.00 | 76 | 1017.4 |
| 20260831001019 | 27 | 184 | 0.0 | 0.0 | 0.00 | 0.00 | 0.00 | 76 | 1017.3 |
| 20260831000519 | 27 | 184 | 0.0 | 0.0 | 0.00 | 0.00 | 0.00 | 76 | 1017.3 |
| 20260831000021 | 27 | 184 | 0.0 | 0.0 | 0.00 | 0.00 | 0.00 | 75 | 1017.2 |
| 20260830235517 | 27 | 184 | 0.0 | 0.0 | 0.00 | 0.00 | 0.00 | 74 | 1017.2 |
| 20260830235023 | 27 | 184 | 0.0 | 0.0 | 0.00 | 0.00 | 0.00 | 73 | 1017.1 |
| 20260830234532 | 28 | 184 | 0.0 | 0.0 | 0.00 | 0.00 | 0.00 | 73 | 1017.1 |
| 20260830234018 | 28 | 184 | 0.0 | 0.0 | 0.00 | 0.00 | 0.00 | 72 | 1017.1 |
| 20260830233518 | 28 | 184 | 0.0 | 0.0 | 0.00 | 0.00 | 0.00 | 70 | 1017.1 |
| 20260830233018 | 28 | 184 | 0.0 | 0.0 | 0.00 | 0.00 | 0.00 | 69 | 1017.0 |
| 20260830232518 | 28 | 184 | 0.0 | 0.0 | 0.00 | 0.00 | 0.00 | 68 | 1017.0 |
| 20260830232022 | 28 | 184 | 0.0 | 0.0 | 0.00 | 0.00 | 0.00 | 68 | 1017.0 |
| 20260830231521 | 28 | 184 | 0.0 | 0.0 | 0.00 | 0.00 | 0.00 | 67 | 1017.0 |
| 20260830231018 | 28 | 184 | 0.0 | 0.0 | 0.00 | 0.00 | 0.00 | 68 | 1017.1 |
| 20260830230517 | 29 | 184 | 0.0 | 0.0 | 0.00 | 0.00 | 0.00 | 67 | 1017.1 |
| 20260830230017 | 29 | 184 | 0.0 | 0.0 | 0.00 | 0.00 | 0.00 | 67 | 1017.0 |
| 20260830225516 | 29 | 184 | 0.0 | 0.0 | 0.00 | 0.00 | 0.00 | 67 | 1016.9 |
| 20260830225016 | 29 | 184 | 0.0 | 0.0 | 0.00 | 0.00 | 0.00 | 66 | 1017.0 |
| 20260830224516 | 29 | 184 | 0.0 | 0.0 | 0.00 | 0.00 | 0.00 | 65 | 1016.9 |
| 20260830224016 | 30 | 184 | 0.0 | 0.0 | 0.00 | 0.00 | 0.00 | 64 | 1016.9 |
| 20260830223516 | 30 | 184 | 0.0 | 0.0 | 0.00 | 0.00 | 0.00 | 65 | 1017.1 |
| 20260830223015 | 30 | 184 | 0.0 | 0.0 | 0.00 | 0.00 | 0.00 | 64 | 1017.0 |
| 20260830222515 | 30 | 184 | 0.0 | 3.2 | 0.00 | 0.00 | 0.00 | 64 | 1017.0 |
| 20260830222015 | 30 | 186 | 0.0 | 3.2 | 0.00 | 0.00 | 0.00 | 65 | 1017.1 |
| 20260830221515 | 30 | 186 | 0.0 | 4.8 | 0.00 | 0.00 | 0.00 | 63 | 1016.9 |
| 20260830221014 | 30 | 186 | 0.0 | 6.4 | 0.00 | 0.00 | 0.00 | 62 | 1016.9 |
| 20260830220514 | 30 | 187 | 1.6 | 6.4 | 0.00 | 0.00 | 0.00 | 60 | 1016.9 |
| 20260830220014 | 30 | 109 | 1.6 | 6.4 | 0.00 | 0.00 | 0.00 | 62 | 1016.9 |
| 20260830215513 | 30 | 150 | 1.6 | 6.4 | 0.00 | 0.00 | 0.00 | 65 | 1016.9 |
| 20260830215013 | 28 | 111 | 0.0 | 3.2 | 0.00 | 0.00 | 0.00 | 68 | 1017.0 |
| 20260830214513 | 29 | 110 | 0.0 | 0.0 | 0.00 | 0.00 | 0.00 | 67 | 1016.9 |
| 20260830214013 | 29 | 110 | 0.0 | 1.6 | 0.00 | 0.00 | 0.00 | 65 | 1016.9 |
| 20260830213512 | 30 | 109 | 0.0 | 6.4 | 0.00 | 0.00 | 0.00 | 65 | 1017.0 |
| 20260830213022 | 30 | 109 | 0.0 | 8.0 | 0.00 | 0.00 | 0.00 | 64 | 1017.1 |
| 20260830212511 | 30 | 127 | 0.0 | 3.2 | 0.00 | 0.00 | 0.00 | 65 | 1017.1 |
| 20260830212011 | 30 | 120 | 1.6 | 3.2 | 0.00 | 0.00 | 0.00 | 65 | 1017.3 |
| 20260830211511 | 30 | 124 | 0.0 | 6.4 | 0.00 | 0.00 | 0.00 | 66 | 1017.3 |
| 20260830211011 | 30 | 125 | 3.2 | 6.4 | 0.00 | 0.00 | 0.00 | 66 | 1017.3 |
| 20260830210511 | 29 | 154 | 0.0 | 4.8 | 0.00 | 0.00 | 0.00 | 68 | 1017.3 |
| 20260830210027 | 29 | 152 | 0.0 | 4.8 | 0.00 | 0.00 | 0.00 | 67 | 1017.3 |
| 20260830205510 | 29 | 165 | 0.0 | 3.2 | 0.00 | 0.00 | 0.00 | 65 | 1017.4 |
| 20260830205009 | 29 | 167 | 0.0 | 4.8 | 0.00 | 0.00 | 0.00 | 65 | 1017.4 |
| 20260830204509 | 29 | 162 | 0.0 | 4.8 | 0.00 | 0.00 | 0.00 | 65 | 1017.4 |
| 20260830204008 | 29 | 51 | 0.0 | 3.2 | 0.00 | 0.00 | 0.00 | 64 | 1017.5 |
| 20260830203508 | 30 | 162 | 1.6 | 3.2 | 0.00 | 0.00 | 0.00 | 65 | 1017.5 |
| 20260830203009 | 30 | 164 | 0.0 | 9.7 | 0.00 | 0.00 | 0.00 | 65 | 1017.6 |
| 20260830202509 | 30 | 88 | 1.6 | 9.7 | 0.00 | 0.00 | 0.00 | 64 | 1017.5 |
| 20260830202006 | 30 | 102 | 1.6 | 6.4 | 0.00 | 0.00 | 0.00 | 65 | 1017.6 |
| 20260830201507 | 30 | 166 | 1.6 | 6.4 | 0.00 | 0.00 | 0.00 | 64 | 1017.7 |
| 20260830201005 | 30 | 131 | 0.0 | 6.4 | 0.00 | 0.00 | 0.00 | 64 | 1017.7 |
| 20260830200505 | 30 | 158 | 1.6 | 8.0 | 0.00 | 0.00 | 0.00 | 63 | 1017.8 |
| 20260830200007 | 30 | 101 | 3.2 | 8.0 | 0.00 | 0.00 | 0.00 | 64 | 1017.9 |
| 20260830195504 | 30 | 132 | 0.0 | 8.0 | 0.00 | 0.00 | 0.00 | 64 | 1017.9 |
| 20260830195003 | 30 | 134 | 1.6 | 4.8 | 0.00 | 0.00 | 0.00 | 64 | 1018.0 |
| 20260830194503 | 30 | 115 | 0.0 | 4.8 | 0.00 | 0.00 | 0.00 | 64 | 1018.1 |
| 20260830194003 | 30 | 151 | 1.6 | 6.4 | 0.00 | 0.00 | 0.00 | 64 | 1018.1 |
| 20260830193503 | 30 | 67 | 3.2 | 9.7 | 0.00 | 0.00 | 0.00 | 64 | 1018.2 |
| 20260830193004 | 30 | 108 | 3.2 | 9.7 | 0.00 | 0.00 | 0.00 | 65 | 1018.2 |
| 20260830192502 | 30 | 63 | 1.6 | 8.0 | 0.00 | 0.00 | 0.00 | 64 | 1018.1 |
| 20260830192001 | 30 | 65 | 3.2 | 8.0 | 0.00 | 0.00 | 0.00 | 64 | 1018.2 |
| 20260830191600 | 31 | 127 | 3.2 | 6.4 | 0.00 | 0.00 | 0.00 | 62 | 1018.3 |
| 20260830191103 | 30 | 131 | 1.6 | 8.0 | 0.00 | 0.00 | 0.00 | 66 | 1018.3 |
| 20260830190559 | 30 | 115 | 3.2 | 8.0 | 0.00 | 0.00 | 0.00 | 65 | 1018.4 |
| 20260830190058 | 30 | 300 | 0.0 | 8.0 | 0.00 | 0.00 | 0.00 | 66 | 1018.5 |
| 20260830185600 | 30 | 297 | 1.6 | 9.7 | 0.00 | 0.00 | 0.00 | 65 | 1018.6 |
| 20260830185056 | 30 | 120 | 1.6 | 8.0 | 0.00 | 0.00 | 0.00 | 67 | 1018.7 |
| 20260830184606 | 30 | 259 | 1.6 | 8.0 | 0.00 | 0.00 | 0.00 | 67 | 1018.6 |
| 20260830184058 | 29 | 200 | 3.2 | 9.7 | 0.00 | 0.00 | 0.00 | 67 | 1018.7 |
| 20260830183555 | 30 | 186 | 4.8 | 9.7 | 0.00 | 0.00 | 0.00 | 66 | 1018.8 |